Starlink 31346

operational
NORAD ID: 58943 Int'l Des: 2024-027 Owner: SPXS Country: US Constellation: starlink
LEOCIRCULAR

Starlink 31346について

説明を読み込み中...

リアルタイム位置

3D地球を読み込み中...

次回通過

高度履歴

Altitude vs Time

uPlot chart will show altitude changes over time

軌道要素

1 58943U 24027N 25354.29185840 -.00000284 00000-0 25278-5 0 9994
2 58943 53.1623 316.1955 0001343 89.6493 270.4662 15.30191645105201
Epoch: Dec 20, 2025 • Age: 11 hours

現在のステータス

高度 480.7 km
速度 7.63 km/s
衛星直下点 52.27°N, 23.85°E
打ち上げ日 Feb 10, 2024
運用期間 1.8 years
タイプ internet

技術仕様

分類 Payload
質量 730.00 kg
乾燥質量 700.00 kg
総質量 730.00 kg
長さ 0.30 m
直径 4.10 m
スパン 29.00 m
形状 Box + pan
製造者 SPXS
バスタイプ Starlink V2M
フェーズステータス In Orbit
所有者/国 SPXS/US

大規模コンステレーション

Loading constellations...